Weather History for KBWI - October, 2012

Change the Weather History Date:

Friday, October 26, 2012

  Actual Average Record
Temperature  
Mean Temperature 65 °F 53 °F  
Max Temperature 69 °F 64 °F 81 °F (1978)
Min Temperature 60 °F 42 °F 27 °F (1952)
Degree Days  
Heating Degree Days 0 12  
Month to date heating degree days 165 228  
Since 1 July heating degree days 193 281  
Cooling Degree Days 0 0  
Month to date cooling degree days 28 15  
Year to date cooling degree days 1569 1160  
Growing Degree Days 15 (Base 50)    
Moisture  
Dew Point 58 °F    
Average Humidity 83    
Maximum Humidity 97    
Minimum Humidity 68    
Precipitation  
Precipitation 0.00 in 0.10 in 3.18 in (1943)
Month to date precipitation 2.25 2.78  
Year to date precipitation 26.93 34.66  
Snow  
Snow 0.00 in 0.00 in - ()
Month to date snowfall 0.0 0.0  
Since 1 July snowfall 0.0 0.0  
Snow Depth 0.00 in    
Sea Level Pressure  
Sea Level Pressure 30.14 in    
Wind  
Wind Speed 6 mph (ENE)    
Max Wind Speed 13 mph    
Max Gust Speed 15 mph    
Visibility 8 miles    
Events      
T = Trace of Precipitation, MM = Missing Value Source: NWS Daily Summary

Daily Weather History Graph

Daily Weather History Graph

Search for Another Location

Airport or City:

Trip Planner

Search our weather history database for the weather conditions in past years. The results will help you decide how hot, cold, wet, or windy it might be!

Date:

Astronomy

Oct. 26, 2012 Rise Set
Actual Time 7:28 AM EDT 6:12 PM EDT
Civil Twilight 7:00 AM EDT 6:39 PM EDT
Nautical Twilight 6:29 AM EDT 7:11 PM EDT
Astronomical Twilight 5:58 AM EDT 7:42 PM EDT
Moon 4:26 PM EDT (10/26) 4:23 AM EDT (10/26)
Length of Visible Light 11h 38m
Length of Day
10h 43m
Waxing Gibbous, 91% of the Moon is Illuminated
Oct 26
Waxing Gibbous
Oct 29
Full
Nov 6
Last Quarter
Nov 13
New
Nov 20
First Quarter

Hourly Weather History & Observations

Time (EDT) Temp. Dew Point Humidity Pressure Visibility Wind Dir Wind Speed Gust Speed Precip Events Conditions
12:14 AM 60.8 °F 57.2 °F 88% 30.18 in 7.0 mi East 4.6 mph - N/A   Overcast
12:54 AM 61.0 °F 57.9 °F 90% 30.18 in 6.0 mi East 4.6 mph - N/A   Overcast
1:26 AM 60.8 °F 57.2 °F 88% 30.18 in 6.0 mi East 3.5 mph - N/A   Overcast
1:34 AM 60.8 °F 57.2 °F 88% 30.18 in 7.0 mi East 3.5 mph - N/A   Overcast
1:54 AM 60.8 °F 57.2 °F 88% 30.18 in 6.0 mi Calm Calm - N/A   Overcast
2:54 AM 62.1 °F 57.9 °F 86% 30.18 in 5.0 mi ENE 3.5 mph - N/A   Overcast
3:54 AM 62.1 °F 59.0 °F 90% 30.17 in 5.0 mi East 5.8 mph - N/A   Overcast
4:54 AM 62.1 °F 59.0 °F 90% 30.17 in 5.0 mi East 6.9 mph - N/A   Overcast
5:54 AM 62.1 °F 59.0 °F 90% 30.17 in 5.0 mi East 5.8 mph - N/A   Overcast
6:54 AM 61.0 °F 59.0 °F 93% 30.18 in 5.0 mi East 4.6 mph - N/A   Overcast
7:54 AM 62.1 °F 59.0 °F 90% 30.19 in 6.0 mi NE 5.8 mph - N/A   Overcast
8:54 AM 62.1 °F 59.0 °F 90% 30.19 in 6.0 mi ENE 6.9 mph - N/A   Overcast
9:54 AM 63.0 °F 59.0 °F 87% 30.20 in 9.0 mi East 8.1 mph - N/A   Overcast
10:43 AM 64.4 °F 59.0 °F 83% 30.20 in 10.0 mi East 9.2 mph - N/A   Mostly Cloudy
10:54 AM 64.0 °F 59.0 °F 84% 30.20 in 10.0 mi ENE 8.1 mph - N/A   Overcast
11:20 AM 66.2 °F 57.2 °F 73% 30.20 in 10.0 mi East 9.2 mph - N/A   Mostly Cloudy
11:54 AM 66.0 °F 57.0 °F 73% 30.18 in 10.0 mi East 9.2 mph - N/A   Mostly Cloudy
12:32 PM 66.2 °F 57.2 °F 73% 30.16 in 10.0 mi ENE 9.2 mph - N/A   Mostly Cloudy
12:54 PM 66.9 °F 57.0 °F 70% 30.15 in 10.0 mi East 9.2 mph - N/A   Mostly Cloudy
1:54 PM 66.9 °F 57.0 °F 70% 30.12 in 10.0 mi East 6.9 mph - N/A   Mostly Cloudy
2:54 PM 68.0 °F 57.9 °F 70% 30.11 in 10.0 mi NE 3.5 mph - N/A   Mostly Cloudy
3:25 PM 69.8 °F 57.2 °F 64% 30.10 in 10.0 mi ENE 8.1 mph - N/A   Overcast
3:54 PM 68.0 °F 57.9 °F 70% 30.10 in 10.0 mi East 6.9 mph - N/A   Overcast
4:54 PM 68.0 °F 57.9 °F 70% 30.08 in 10.0 mi East 8.1 mph - N/A   Overcast
5:54 PM 66.9 °F 57.9 °F 73% 30.08 in 10.0 mi NE 5.8 mph - N/A   Overcast
6:54 PM 66.0 °F 57.9 °F 75% 30.08 in 10.0 mi ENE 6.9 mph - N/A   Mostly Cloudy
7:54 PM 64.9 °F 57.9 °F 78% 30.09 in 10.0 mi East 8.1 mph - N/A   Mostly Cloudy
8:54 PM 63.0 °F 57.0 °F 81% 30.09 in 10.0 mi East 5.8 mph - N/A   Mostly Cloudy
9:54 PM 62.6 °F 57.2 °F 82% 30.09 in 10.0 mi ENE 5.8 mph - N/A   Mostly Cloudy
10:54 PM 62.1 °F 57.0 °F 84% 30.08 in 10.0 mi ENE 5.8 mph - N/A   Mostly Cloudy
11:54 PM 60.1 °F 57.0 °F 90% 30.06 in 10.0 mi ENE 5.8 mph - N/A   Mostly Cloudy